Retour au catalogue

FENGYUN 1C DEB

ActifSSO
NORAD 32095·DEBRIS·🇨🇳 China

Lancé May 10, 1999 depuis Taiyuan Satellite Launch Center

Loading…

Prochains Passages (prochaines 24 heures)

TLE

FraisSource: Space-Track

Époque: Sep 13, 2026, 06:56 UTC

1 32095U 99025CQM 26256.28957735  .00000339  00000-0  18638-3 0  9995
2 32095  98.6319 268.6604 0078393  25.1547 335.3414 14.16322161987030

Suivez FENGYUN 1C DEB en temps réel avec AllMySat

Download on the App Store